Weather History for Atlantic, IA

Change the Weather History Date:

Thursday, October 6, 2011

  Actual Average Record
Temperature  
Mean Temperature 68 °F -  
Max Temperature 82 °F 67 °F 86 °F (2007)
Min Temperature 55 °F 42 °F 24 °F (2012)
Cooling Degree Days 4    
Growing Degree Days 18 (Base 50)    
Moisture  
Dew Point 39 °F    
Average Humidity 37    
Maximum Humidity 63    
Minimum Humidity 15    
Precipitation  
Precipitation 0.00 in - - ()
Sea Level Pressure  
Sea Level Pressure 30.02 in    
Wind  
Wind Speed 9 mph (SSE)    
Max Wind Speed 22 mph    
Max Gust Speed 31 mph    
Visibility 10 miles    
Events      
Averages and records for this station are not official NWS values.
T = Trace of Precipitation, MM = Missing Value Source: NWS Daily Summary

Daily Weather History Graph

Daily Weather History Graph

Search for Another Location

Airport:

Trip Planner

Search our weather history database for the weather conditions in past years. The results will help you decide how hot, cold, wet, or windy it might be!

Date:

Astronomy

Oct. 06, 2011 Rise Set
Actual Time 7:21 AM CDT 6:54 PM CDT
Civil Twilight 6:54 AM CDT 7:21 PM CDT
Nautical Twilight 6:22 AM CDT 7:53 PM CDT
Astronomical Twilight 5:50 AM CDT 8:25 PM CDT
Moon 4:10 PM CDT (10/6) 2:07 AM CDT (10/6)
Length of Visible Light 12h 27m
Length of Day
11h 32m
Waxing Gibbous, 75% of the Moon is Illuminated
Oct 6
Waxing Gibbous
Oct 11
Full
Oct 19
Last Quarter
Oct 26
New
Nov 2
First Quarter

Hourly Weather History & Observations

Time (CDT) Temp. Dew Point Humidity Pressure Visibility Wind Dir Wind Speed Gust Speed Precip Events Conditions
12:15 AM 64.4 °F 37.4 °F 37% 30.05 in 10.0 mi South 5.8 mph - N/A   Clear
12:35 AM 62.6 °F 39.2 °F 42% 30.06 in 10.0 mi South 4.6 mph - N/A   Clear
1:15 AM 62.6 °F 39.2 °F 42% 30.05 in 10.0 mi SSE 8.1 mph - N/A   Clear
1:35 AM 60.8 °F 39.2 °F 45% 30.06 in 10.0 mi South 6.9 mph - N/A   Clear
1:55 AM 57.2 °F 41.0 °F 55% 30.06 in 10.0 mi South 4.6 mph - N/A   Clear
2:15 AM 59.0 °F 41.0 °F 51% 30.06 in 10.0 mi SSE 5.8 mph - N/A   Clear
2:35 AM 57.2 °F 41.0 °F 55% 30.06 in 10.0 mi South 3.5 mph - N/A   Clear
2:55 AM 60.8 °F 41.0 °F 48% 30.06 in 10.0 mi SSE 8.1 mph - N/A   Clear
3:15 AM 60.8 °F 41.0 °F 48% 30.06 in 10.0 mi South 4.6 mph - N/A   Clear
3:35 AM 57.2 °F 41.0 °F 55% 30.06 in 10.0 mi SSW 3.5 mph - N/A   Clear
3:55 AM 55.4 °F 41.0 °F 58% 30.05 in 10.0 mi South 3.5 mph - N/A   Clear
4:15 AM 57.2 °F 42.8 °F 59% 30.05 in 10.0 mi South 3.5 mph - N/A   Clear
4:35 AM 57.2 °F 42.8 °F 59% 30.05 in 10.0 mi South 6.9 mph - N/A   Clear
4:55 AM 57.2 °F 42.8 °F 59% 30.05 in 10.0 mi South 5.8 mph - N/A   Clear
5:15 AM 57.2 °F 42.8 °F 59% 30.05 in 10.0 mi SSE 5.8 mph - N/A   Clear
5:35 AM 57.2 °F 42.8 °F 59% 30.05 in 10.0 mi South 4.6 mph - N/A   Clear
5:55 AM 55.4 °F 42.8 °F 63% 30.06 in 10.0 mi South 3.5 mph - N/A   Clear
6:15 AM 57.2 °F 42.8 °F 59% 30.06 in 10.0 mi South 3.5 mph - N/A   Clear
6:35 AM 57.2 °F 42.8 °F 59% 30.06 in 10.0 mi SSE 3.5 mph - N/A   Clear
6:55 AM 57.2 °F 42.8 °F 59% 30.06 in 10.0 mi SSE 5.8 mph - N/A   Clear
7:15 AM 59.0 °F 42.8 °F 55% 30.05 in 10.0 mi SSE 5.8 mph - N/A   Clear
7:35 AM 59.0 °F 42.8 °F 55% 30.05 in 10.0 mi SE 3.5 mph - N/A   Clear
7:55 AM 59.0 °F 42.8 °F 55% 30.06 in 10.0 mi Calm Calm - N/A   Clear
8:15 AM 59.0 °F 42.8 °F 55% 30.06 in 10.0 mi SSE 4.6 mph - N/A   Clear
8:55 AM 62.6 °F 44.6 °F 52% 30.07 in 10.0 mi South 8.1 mph - N/A   Clear
9:15 AM 64.4 °F 44.6 °F 49% 30.07 in 10.0 mi SSE 9.2 mph 16.1 mph N/A   Clear
9:35 AM 66.2 °F 44.6 °F 46% 30.07 in 10.0 mi SSE 9.2 mph 16.1 mph N/A   Clear
9:55 AM 69.8 °F 42.8 °F 38% 30.07 in 10.0 mi SSE 12.7 mph 17.3 mph N/A   Clear
10:35 AM 71.6 °F 42.8 °F 35% 30.05 in 10.0 mi SSE 13.8 mph 18.4 mph N/A   Clear
10:55 AM 71.6 °F 41.0 °F 33% 30.05 in 10.0 mi SSE 13.8 mph - N/A   Clear
11:15 AM 73.4 °F 41.0 °F 31% 30.04 in 10.0 mi SSE 12.7 mph 19.6 mph N/A   Clear
11:35 AM 75.2 °F 39.2 °F 27% 30.04 in 10.0 mi South 15.0 mph 21.9 mph N/A   Clear
11:55 AM 75.2 °F 37.4 °F 25% 30.03 in 10.0 mi SSE 15.0 mph 20.7 mph N/A   Clear
12:15 PM 75.2 °F 37.4 °F 25% 30.03 in 10.0 mi SSE 15.0 mph 20.7 mph N/A   Clear
12:35 PM 78.8 °F 35.6 °F 21% 30.03 in 10.0 mi SSE 12.7 mph 20.7 mph N/A   Clear
12:55 PM 77.0 °F 37.4 °F 24% 30.02 in 10.0 mi SSE 13.8 mph 21.9 mph N/A   Clear
1:15 PM 77.0 °F 37.4 °F 24% 30.01 in 10.0 mi SSE 16.1 mph 25.3 mph N/A   Clear
1:35 PM 78.8 °F 39.2 °F 24% 30.00 in 10.0 mi SSE 17.3 mph 21.9 mph N/A   Clear
1:55 PM 78.8 °F 37.4 °F 23% 29.99 in 10.0 mi SSE 19.6 mph 26.5 mph N/A   Clear
2:15 PM 78.8 °F 39.2 °F 24% 29.99 in 10.0 mi SE 15.0 mph 26.5 mph N/A   Clear
2:35 PM 80.6 °F 37.4 °F 21% 29.98 in 10.0 mi SSE 18.4 mph 24.2 mph N/A   Clear
3:15 PM 82.4 °F 37.4 °F 20% 29.97 in 10.0 mi SSE 17.3 mph 28.8 mph N/A   Clear
3:35 PM 82.4 °F 37.4 °F 20% 29.96 in 10.0 mi SSE 20.7 mph 31.1 mph N/A   Clear
3:55 PM 82.4 °F 35.6 °F 19% 29.96 in 10.0 mi SSE 19.6 mph 26.5 mph N/A   Clear
4:15 PM 82.4 °F 30.2 °F 15% 29.96 in 10.0 mi SSE 21.9 mph 31.1 mph N/A   Clear
4:35 PM 82.4 °F 30.2 °F 15% 29.95 in 10.0 mi SSE 17.3 mph 25.3 mph N/A   Clear
5:15 PM 82.4 °F 30.2 °F 15% 29.95 in 10.0 mi SSE 13.8 mph 25.3 mph N/A   Clear
5:35 PM 80.6 °F 30.2 °F 16% 29.94 in 10.0 mi SE 17.3 mph 29.9 mph N/A   Clear
5:55 PM 80.6 °F 32.0 °F 17% 29.94 in 10.0 mi SSE 13.8 mph 23.0 mph N/A   Scattered Clouds
6:15 PM 80.6 °F 32.0 °F 17% 29.94 in 10.0 mi SE 15.0 mph 20.7 mph N/A   Scattered Clouds
6:35 PM 78.8 °F 33.8 °F 20% 29.94 in 10.0 mi SE 12.7 mph 19.6 mph N/A   Clear
6:55 PM 78.8 °F 35.6 °F 21% 29.94 in 10.0 mi SE 11.5 mph - N/A   Clear
7:15 PM 77.0 °F 37.4 °F 24% 29.95 in 10.0 mi SE 10.4 mph - N/A   Clear
7:35 PM 75.2 °F 37.4 °F 25% 29.95 in 10.0 mi SE 10.4 mph - N/A   Clear
7:55 PM 73.4 °F 37.4 °F 27% 29.95 in 10.0 mi SE 10.4 mph 16.1 mph N/A   Clear
8:15 PM 73.4 °F 37.4 °F 27% 29.96 in 10.0 mi SE 10.4 mph - N/A   Clear
8:35 PM 73.4 °F 37.4 °F 27% 29.96 in 10.0 mi SE 10.4 mph - N/A   Clear
8:55 PM 73.4 °F 37.4 °F 27% 29.96 in 10.0 mi SE 11.5 mph 19.6 mph N/A   Clear
9:15 PM 73.4 °F 37.4 °F 27% 29.96 in 10.0 mi SE 12.7 mph - N/A   Clear
9:35 PM 71.6 °F 37.4 °F 29% 29.96 in 10.0 mi SE 13.8 mph 21.9 mph N/A   Clear
9:55 PM 73.4 °F 37.4 °F 27% 29.96 in 10.0 mi SE 17.3 mph 23.0 mph N/A   Clear
10:15 PM 73.4 °F 39.2 °F 29% 29.96 in 10.0 mi SSE 16.1 mph 25.3 mph N/A   Clear
10:35 PM 71.6 °F 39.2 °F 31% 29.97 in 10.0 mi SSE 15.0 mph 24.2 mph N/A   Clear
10:55 PM 71.6 °F 41.0 °F 33% 29.97 in 10.0 mi SSE 12.7 mph 17.3 mph N/A   Clear
11:15 PM 71.6 °F 41.0 °F 33% 29.97 in 10.0 mi SSE 16.1 mph 20.7 mph N/A   Clear
11:35 PM 71.6 °F 42.8 °F 35% 29.96 in 10.0 mi SSE 13.8 mph 23.0 mph N/A   Clear
11:55 PM 71.6 °F 42.8 °F 35% 29.96 in 10.0 mi SSE 15.0 mph 21.9 mph N/A   Clear